EW1895 Weather Reports


time (UTC)temp
C
wind
direction
speed
KPH
gust
KPH
rain 1hr
cm
rain 24hr
cm
rain mn
cm
humidity
%
barometer
mb
20260508091608 6 142 0.0 0.0 0.00 0.00 0.00 95 1015.2
20260508090100 6 142 0.0 0.0 0.00 0.00 0.00 95 1015.1
20260508084550 7 142 0.0 0.0 0.00 0.00 0.00 95 1015.0
20260508083055 7 142 0.0 0.0 0.00 0.00 0.00 96 1014.9
20260508081550 7 142 0.0 0.0 0.00 0.00 0.00 96 1014.6
20260508080044 8 142 0.0 0.0 0.00 0.00 0.00 96 1014.6
20260508074544 8 142 0.0 0.0 0.00 0.00 0.00 96 1014.4
20260508073048 8 142 0.0 0.0 0.00 0.00 0.00 96 1014.3
20260508071545 8 142 0.0 0.0 0.00 0.00 0.00 96 1014.2
20260508070043 7 142 0.0 0.0 0.00 0.00 0.00 96 1014.0
20260508064542 7 142 0.0 0.0 0.00 0.00 0.00 96 1014.1
20260508063041 7 142 0.0 0.0 0.00 0.00 0.00 96 1013.9
20260508061538 7 142 0.0 0.0 0.00 0.00 0.00 95 1013.6
20260508060034 7 142 0.0 0.0 0.00 0.00 0.00 96 1013.4
20260508054534 7 142 0.0 0.0 0.00 0.00 0.00 95 1013.3
20260508053033 7 142 0.0 0.0 0.00 0.00 0.00 95 1013.3
20260508051535 8 142 0.0 0.0 0.00 0.00 0.00 95 1013.3
20260508050033 8 142 0.0 0.0 0.00 0.00 0.00 95 1013.2
20260508044530 8 142 0.0 0.0 0.00 0.00 0.00 95 1013.2
20260508043028 8 142 0.0 0.0 0.00 0.00 0.00 95 1013.0
20260508041526 8 142 0.0 0.0 0.00 0.00 0.00 95 1013.1
20260508040025 8 142 0.0 0.0 0.00 0.00 0.00 95 1012.9
20260508034529 8 142 0.0 0.0 0.00 0.00 0.00 95 1012.9
20260508033022 8 142 0.0 0.0 0.00 0.00 0.00 94 1012.7
20260508031525 8 142 0.0 0.0 0.00 0.00 0.00 94 1012.8
20260508030021 8 142 0.0 0.0 0.00 0.00 0.00 94 1012.7
20260508024520 8 142 0.0 0.0 0.00 0.00 0.00 94 1012.7
20260508023019 8 142 0.0 0.0 0.00 0.00 0.00 93 1012.6
20260508021515 8 142 0.0 0.0 0.00 0.00 0.00 93 1012.5
20260508020019 9 142 0.0 0.0 0.00 0.00 0.00 92 1012.4
20260508014512 9 142 0.0 0.0 0.00 0.00 0.00 92 1012.2
20260508013009 10 142 0.0 0.0 0.00 0.00 0.00 92 1012.0
20260508011506 10 142 0.0 0.0 0.00 0.00 0.00 91 1012.1
20260508010002 10 142 0.0 0.0 0.00 0.00 0.00 91 1011.9
20260508004601 11 142 0.0 0.0 0.00 0.00 0.00 91 1011.8
20260508003056 11 142 0.0 0.0 0.00 0.00 0.00 90 1011.8
20260508001556 11 142 0.0 0.0 0.00 0.00 0.00 90 1011.5
20260508000052 12 142 0.0 0.0 0.00 0.00 0.00 90 1011.4
20260507234554 12 142 0.0 0.0 0.00 0.00 0.00 89 1011.1
20260507233048 12 142 0.0 0.0 0.00 0.00 0.00 88 1011.1
20260507231550 12 142 0.0 0.0 0.00 0.00 0.00 88 1010.7
20260507230044 12 184 0.0 0.0 0.00 0.00 0.00 89 1010.5
20260507224542 12 184 0.0 0.0 0.00 0.00 0.00 87 1010.5
20260507223039 13 184 0.0 0.0 0.00 0.00 0.00 86 1010.4
20260507221539 13 209 0.0 0.0 0.00 0.00 0.00 86 1010.4
20260507220038 13 209 0.0 1.6 0.00 0.00 0.00 86 1010.3
20260507214537 13 209 0.0 0.0 0.00 0.00 0.00 85 1010.5
20260507213044 13 208 0.0 0.0 0.00 0.00 0.00 87 1010.4
20260507211537 13 208 0.0 0.0 0.00 0.00 0.00 88 1010.2
20260507210037 12 208 0.0 1.6 0.00 0.00 0.00 88 1010.1
20260507204537 12 144 0.0 0.0 0.00 0.00 0.00 89 1010.7
20260507203038 12 144 0.0 0.0 0.00 0.00 0.00 87 1010.8
20260507201538 12 144 0.0 0.0 0.00 0.00 0.00 88 1010.7
20260507200034 12 144 0.0 0.0 0.00 0.00 0.00 87 1010.9
20260507194535 12 144 0.0 0.0 0.00 0.00 0.00 84 1011.0
20260507193034 12 144 0.0 0.0 0.00 0.00 0.00 84 1010.7
20260507191534 12 144 0.0 0.0 0.00 0.00 0.00 78 1011.3
20260507190036 12 140 0.0 4.8 0.00 0.00 0.00 76 1011.1
20260507184533 13 282 0.0 0.0 0.00 0.00 0.00 75 1011.2
20260507183039 13 280 0.0 0.0 0.00 0.00 0.00 71 1011.3
20260507181534 13 279 0.0 1.6 0.00 0.00 0.00 69 1011.4
20260507180032 13 355 0.0 0.0 0.00 0.00 0.00 69 1011.4
20260507174530 13 345 0.0 4.8 0.00 0.00 0.00 77 1011.6
20260507173040 13 31 0.0 11.3 0.00 0.00 0.00 81 1011.7
20260507171529 13 81 0.0 0.0 0.00 0.00 0.00 83 1011.8
20260507170028 12 80 0.0 4.8 0.00 0.00 0.00 81 1012.0
20260507164528 13 155 0.0 0.0 0.00 0.00 0.00 87 1012.1
20260507163027 12 137 0.0 1.6 0.00 0.00 0.00 87 1012.2
20260507161527 12 9 0.0 0.0 0.00 0.00 0.00 89 1012.3
20260507160027 12 48 0.0 0.0 0.00 0.00 0.00 90 1012.6
20260507154529 12 98 0.0 0.0 0.00 0.00 0.00 88 1012.7
20260507153026 12 98 0.0 0.0 0.00 0.00 0.00 88 1012.8
20260507151528 12 309 0.0 3.2 0.00 0.00 0.00 89 1012.6
20260507150024 12 328 0.0 1.6 0.00 0.00 0.00 89 1012.5
20260507144524 12 335 0.0 4.8 0.00 0.00 0.00 87 1012.8
20260507143022 13 340 0.0 6.4 0.00 0.00 0.00 85 1012.5
20260507141523 13 343 0.0 3.2 0.00 0.00 0.00 87 1012.7
20260507140022 13 319 0.0 4.8 0.00 0.00 0.00 87 1012.9
20260507134522 13 319 0.0 4.8 0.00 0.00 0.00 87 1012.8
20260507133021 13 300 0.0 3.2 0.00 0.00 0.00 87 1012.7
20260507131521 13 355 0.0 3.2 0.00 0.00 0.00 87 1012.4
20260507130019 13 137 0.0 4.8 0.00 0.00 0.00 86 1012.3
20260507124522 13 232 0.0 6.4 0.00 0.00 0.00 86 1012.6
20260507123017 13 138 0.0 8.0 0.00 0.00 0.00 87 1012.2
20260507121516 12 204 0.0 1.6 0.00 0.00 0.00 88 1012.3
20260507120015 12 341 0.0 3.2 0.00 0.00 0.00 88 1012.2
20260507114515 12 103 0.0 3.2 0.00 0.00 0.00 88 1012.3
20260507113014 12 296 0.0 3.2 0.00 0.00 0.00 87 1012.2
20260507111517 12 278 0.0 6.4 0.00 0.00 0.00 88 1011.7
20260507110011 12 49 0.0 0.0 0.00 0.00 0.00 87 1011.8
20260507104521 12 345 0.0 0.0 0.00 0.00 0.00 87 1011.7
20260507103008 12 22 0.0 0.0 0.00 0.00 0.00 86 1011.7
20260507101507 12 350 0.0 8.0 0.00 0.00 0.00 86 1011.1
20260507100007 12 340 0.0 8.0 0.00 0.00 0.00 86 1011.3
20260507094505 13 329 0.0 4.8 0.00 0.00 0.00 87 1011.7
20260507093005 13 335 1.6 9.7 0.00 0.00 0.00 87 1011.7